星链-1664 (STARLINK-1664 )

导读 | 豆包AI

STARLINK-1664是美国太空探索技术公司(SpaceX)星链星座的组网卫星,于2020年10月6日发射升空,星链项目旨在构建全球卫星互联网通信系统,这颗卫星加入星座后,扩充了卫星网络的覆盖范围与通信容量,为全球偏远地区等提供互联网接入服务,也推进了低轨卫星星座建设进程。

基本信息
目录编号:
46553
目录名称:
STARLINK-1664
国际标识:
2020-070X
轨道中心:
EARTH
卫星名称:
星链-1664
卫星全名:
星链-1664 (STARLINK-1664 )
卫星状态:
在轨 (已飞行2006 天)
发射日期:
2020-10-06 UTC
国别 :
美国 (US)
星等 :
--
轨道信息
数据来源 国际轨道数据
星历时间: 2026-04-03T20:22:21+0800
15小时前
查看轨道信息
半长轴: 6817.811km
偏心率: 0.0002065
轨道倾角: 53.050°
近地点辐角 119.635°
升交点赤经 15.476°
平近点角 240.486°
近地点: 438.266km
远地点: 441.082km
周期: 93.374分钟
每日圈数: 15.421812
详细信息
固有亮度:
5
最大亮度:
2.5
卫星平台:
Starlink V1.0
覆盖范围:
全球
运营商:
太空探索技术公司
运营商所在国:
美国
制造商(研发单位):
太空探索技术公司
制造商所在国:
美国
使用方式:
暂无
卫星简介
星链(Starlink)计划是由太空探索技术公司(SpaceX)提出的一个巨型低轨卫星互联网星座项目,计划在2019年至2024年间在太空搭建由约1.2万颗卫星组成的“星链”网络,其中1584颗将部署在地球上空550千米处的近地轨道,并从2020年开始工作。该卫星仍在工作。
2D轨道图
3D轨道图
轨道高度分析图
轨道倾角分析图
轨道综合分析图
查看轨道综合分析图